Voltar ao catálogo

SL-8 DEB

AtivoLEO
NORAD 21210·DEBRIS·🇷🇺 Russia

Lançado Feb 12, 1991 de Plesetsk Cosmodrome

Loading…

Próximas Passagens (próximas 24 horas)

TLE

AtualizadoSource: Space-Track

Época: Sep 14, 2026, 13:46 UTC

1 21210U 91009BD  26257.57428537 -.00000073  00000-0 -56696-3 0  9995
2 21210  74.0944 211.0479 0136893 181.6748 298.8300 12.17469262576058

Acompanhe SL-8 DEB em tempo real com AllMySat

Download on the App Store